Time,TemperatureF,DewpointF,PressureIn,WindDirection,WindDirectionDegrees,WindSpeedMPH,WindSpeedGustMPH,Humidity,HourlyPrecipIn,Conditions,Clouds,dailyrainin,SoftwareType,DateUTC
2013-02-06 00:02:00,37.3,35.2,30.17,SW,232,0.0,0.0,92,0.00,RA,,0.00,WeatherDisplay:10.37,2013-02-06 06:02:00,
2013-02-06 00:07:00,37.2,35.1,30.17,SW,232,0.0,0.0,92,0.00,RA,,0.00,WeatherDisplay:10.37,2013-02-06 06:07:00,
2013-02-06 00:12:00,37.2,35.4,30.17,SW,232,0.0,0.0,93,0.00,CLR,,0.00,WeatherDisplay:10.37,2013-02-06 06:12:00,
2013-02-06 00:17:00,37.2,35.4,30.17,SW,232,0.0,0.0,93,0.00,CLR,,0.00,WeatherDisplay:10.37,2013-02-06 06:17:00,
2013-02-06 00:22:00,37.0,35.2,30.17,SW,232,0.0,0.0,93,0.00,CLR,,0.00,WeatherDisplay:10.37,2013-02-06 06:22:00,
2013-02-06 00:27:00,36.9,35.1,30.17,SW,232,0.0,0.0,93,0.00,CLR,,0.00,WeatherDisplay:10.37,2013-02-06 06:27:00,
2013-02-06 00:32:00,36.9,35.1,30.18,SW,232,1.1,1.1,93,0.00,CLR,,0.00,WeatherDisplay:10.37,2013-02-06 06:32:00,
2013-02-06 00:37:00,36.9,35.1,30.18,SW,232,0.0,0.0,93,0.00,CLR,,0.00,WeatherDisplay:10.37,2013-02-06 06:37:00,
2013-02-06 00:42:00,36.8,35.0,30.18,SW,232,0.0,0.0,93,0.00,CLR,,0.00,WeatherDisplay:10.37,2013-02-06 06:42:00,
2013-02-06 00:47:00,36.6,34.8,30.18,SW,232,0.0,0.0,93,0.00,CLR,,0.00,WeatherDisplay:10.37,2013-02-06 06:47:00,
2013-02-06 00:52:00,36.6,34.8,30.19,SW,232,0.0,0.0,93,0.00,CLR,,0.00,WeatherDisplay:10.37,2013-02-06 06:52:00,
2013-02-06 00:57:00,36.3,34.5,30.18,SW,232,0.0,0.0,93,0.00,CLR,,0.00,WeatherDisplay:10.37,2013-02-06 06:57:00,
2013-02-06 01:02:00,36.2,34.4,30.19,SW,232,0.0,0.0,93,0.00,CLR,,0.00,WeatherDisplay:10.37,2013-02-06 07:02:00,
2013-02-06 01:07:00,36.2,34.4,30.19,SW,232,0.0,0.0,93,0.00,CLR,,0.00,WeatherDisplay:10.37,2013-02-06 07:07:00,
2013-02-06 01:12:00,36.0,34.2,30.19,SW,232,0.0,0.0,93,0.00,CLR,,0.00,WeatherDisplay:10.37,2013-02-06 07:12:00,
2013-02-06 01:17:00,35.8,34.0,30.19,SW,232,0.0,0.0,93,0.00,CLR,,0.00,WeatherDisplay:10.37,2013-02-06 07:17:00,
2013-02-06 01:22:00,35.6,33.8,30.19,SW,232,0.0,0.0,93,0.00,CLR,,0.00,WeatherDisplay:10.37,2013-02-06 07:22:00,
2013-02-06 01:27:00,35.5,33.7,30.19,SW,232,0.0,0.0,93,0.00,CLR,,0.00,WeatherDisplay:10.37,2013-02-06 07:27:00,
2013-02-06 01:32:00,35.3,33.5,30.19,SW,232,0.0,0.0,93,0.00,CLR,,0.00,WeatherDisplay:10.37,2013-02-06 07:32:00,
2013-02-06 01:37:00,35.3,33.7,30.19,SW,232,0.0,0.0,94,0.00,CLR,,0.00,WeatherDisplay:10.37,2013-02-06 07:37:00,
2013-02-06 01:42:00,35.3,33.7,30.20,SW,232,0.0,0.0,94,0.00,CLR,,0.00,WeatherDisplay:10.37,2013-02-06 07:42:00,
2013-02-06 01:47:00,35.3,33.7,30.20,SW,232,0.0,0.0,94,0.00,CLR,,0.00,WeatherDisplay:10.37,2013-02-06 07:47:00,
2013-02-06 01:53:00,35.3,33.7,30.19,SW,232,0.0,0.0,94,0.00,CLR,,0.00,WeatherDisplay:10.37,2013-02-06 07:53:00,
2013-02-06 01:58:00,35.2,33.6,30.20,SW,232,1.1,0.0,94,0.00,CLR,,0.00,WeatherDisplay:10.37,2013-02-06 07:58:00,
2013-02-06 02:03:00,35.0,33.4,30.19,SW,232,0.0,0.0,94,0.00,CLR,,0.00,WeatherDisplay:10.37,2013-02-06 08:03:00,
2013-02-06 02:08:00,34.7,33.2,30.19,SW,232,0.0,0.0,94,0.00,CLR,,0.00,WeatherDisplay:10.37,2013-02-06 08:08:00,
2013-02-06 02:13:00,34.7,33.2,30.20,SW,232,0.0,0.0,94,0.00,CLR,,0.00,WeatherDisplay:10.37,2013-02-06 08:13:00,
2013-02-06 02:18:00,34.6,33.1,30.20,SW,232,0.0,0.0,94,0.00,CLR,,0.00,WeatherDisplay:10.37,2013-02-06 08:18:00,
2013-02-06 02:23:00,34.4,32.9,30.20,SW,232,0.0,0.0,94,0.00,CLR,,0.00,WeatherDisplay:10.37,2013-02-06 08:23:00,
2013-02-06 02:28:00,34.3,32.8,30.20,SW,232,0.0,0.0,94,0.00,CLR,,0.00,WeatherDisplay:10.37,2013-02-06 08:28:00,
2013-02-06 02:33:00,34.1,32.6,30.20,SW,232,0.0,0.0,94,0.00,CLR,,0.00,WeatherDisplay:10.37,2013-02-06 08:33:00,
2013-02-06 02:38:00,34.1,32.6,30.20,SW,232,0.0,0.0,94,0.00,CLR,,0.00,WeatherDisplay:10.37,2013-02-06 08:38:00,
2013-02-06 02:43:00,34.0,32.5,30.20,SW,232,0.0,0.0,94,0.00,CLR,,0.00,WeatherDisplay:10.37,2013-02-06 08:43:00,
2013-02-06 02:48:00,34.0,32.5,30.20,SW,232,0.0,0.0,94,0.00,CLR,,0.00,WeatherDisplay:10.37,2013-02-06 08:48:00,
2013-02-06 02:53:00,33.8,32.3,30.20,SW,232,0.0,0.0,94,0.00,CLR,,0.00,WeatherDisplay:10.37,2013-02-06 08:53:00,
2013-02-06 02:58:00,33.7,32.2,30.20,SW,232,0.0,0.0,94,0.00,CLR,,0.00,WeatherDisplay:10.37,2013-02-06 08:58:00,
2013-02-06 03:04:00,33.7,32.2,30.21,SW,232,0.0,0.0,94,0.00,CLR,,0.00,WeatherDisplay:10.37,2013-02-06 09:04:00,
2013-02-06 03:09:00,33.7,32.2,30.21,SW,232,0.0,0.0,94,0.00,CLR,,0.00,WeatherDisplay:10.37,2013-02-06 09:09:00,
2013-02-06 03:14:00,33.7,32.2,30.21,SW,232,0.0,0.0,94,0.00,CLR,,0.00,WeatherDisplay:10.37,2013-02-06 09:14:00,
2013-02-06 03:19:00,33.7,32.2,30.21,SW,232,0.0,0.0,94,0.00,CLR,,0.00,WeatherDisplay:10.37,2013-02-06 09:19:00,
2013-02-06 03:24:00,33.5,32.0,30.22,SW,232,1.1,1.1,94,0.00,CLR,,0.00,WeatherDisplay:10.37,2013-02-06 09:24:00,
2013-02-06 03:29:00,33.5,32.0,30.21,SW,232,0.0,0.0,94,0.00,CLR,,0.00,WeatherDisplay:10.37,2013-02-06 09:29:00,
2013-02-06 03:34:00,33.4,31.9,30.22,SW,232,0.0,0.0,94,0.00,CLR,,0.00,WeatherDisplay:10.37,2013-02-06 09:34:00,
2013-02-06 03:39:00,33.5,32.0,30.22,SW,232,0.0,0.0,94,0.00,CLR,,0.00,WeatherDisplay:10.37,2013-02-06 09:39:00,
2013-02-06 03:44:00,33.5,32.0,30.22,SW,232,0.0,0.0,94,0.00,CLR,,0.00,WeatherDisplay:10.37,2013-02-06 09:44:00,
2013-02-06 03:49:00,33.4,31.9,30.22,SW,232,0.0,0.0,94,0.00,CLR,,0.00,WeatherDisplay:10.37,2013-02-06 09:49:00,
2013-02-06 03:54:00,33.2,31.7,30.22,SW,232,0.0,0.0,94,0.00,CLR,,0.00,WeatherDisplay:10.37,2013-02-06 09:54:00,
2013-02-06 03:59:00,33.2,31.7,30.23,SW,232,0.0,0.0,94,0.00,CLR,,0.00,WeatherDisplay:10.37,2013-02-06 09:59:00,
2013-02-06 04:04:00,33.1,31.6,30.23,SW,232,0.0,0.0,94,0.00,CLR,,0.00,WeatherDisplay:10.37,2013-02-06 10:04:00,
2013-02-06 04:09:00,32.9,31.4,30.24,SW,232,0.0,0.0,94,0.00,CLR,,0.00,WeatherDisplay:10.37,2013-02-06 10:09:00,
2013-02-06 04:14:00,32.8,31.3,30.24,SW,232,0.0,0.0,94,0.00,CLR,,0.00,WeatherDisplay:10.37,2013-02-06 10:14:00,
2013-02-06 04:19:00,32.7,31.2,30.24,SW,232,0.0,0.0,94,0.00,CLR,,0.00,WeatherDisplay:10.37,2013-02-06 10:19:00,
2013-02-06 04:24:00,32.7,31.2,30.24,SW,232,0.0,0.0,94,0.00,CLR,,0.00,WeatherDisplay:10.37,2013-02-06 10:24:00,
2013-02-06 04:29:00,32.7,31.2,30.24,SW,232,0.0,0.0,94,0.00,CLR,,0.00,WeatherDisplay:10.37,2013-02-06 10:29:00,
2013-02-06 04:34:00,32.7,31.4,30.24,SW,232,0.0,0.0,95,0.00,CLR,,0.00,WeatherDisplay:10.37,2013-02-06 10:34:00,
2013-02-06 04:39:00,32.7,31.4,30.24,SW,232,0.0,0.0,95,0.00,CLR,,0.00,WeatherDisplay:10.37,2013-02-06 10:39:00,
2013-02-06 04:44:00,32.7,31.4,30.24,SW,232,0.0,0.0,95,0.00,CLR,,0.00,WeatherDisplay:10.37,2013-02-06 10:44:00,
2013-02-06 04:49:00,32.7,31.4,30.25,SW,232,0.0,0.0,95,0.00,CLR,,0.00,WeatherDisplay:10.37,2013-02-06 10:49:00,
2013-02-06 04:54:00,32.5,31.2,30.25,SW,232,0.0,0.0,95,0.00,CLR,,0.00,WeatherDisplay:10.37,2013-02-06 10:54:00,
2013-02-06 04:59:00,32.4,31.1,30.25,SW,232,0.0,0.0,95,0.00,CLR,,0.00,WeatherDisplay:10.37,2013-02-06 10:59:00,
2013-02-06 05:04:00,32.2,30.9,30.26,SW,232,0.0,0.0,95,0.00,CLR,,0.00,WeatherDisplay:10.37,2013-02-06 11:04:00,
2013-02-06 05:09:00,32.4,31.1,30.26,SW,232,0.0,0.0,95,0.00,CLR,,0.00,WeatherDisplay:10.37,2013-02-06 11:09:00,
2013-02-06 05:14:00,32.4,31.1,30.26,SW,232,0.0,0.0,95,0.00,CLR,,0.00,WeatherDisplay:10.37,2013-02-06 11:14:00,
2013-02-06 05:19:00,32.2,30.9,30.26,SW,232,0.0,0.0,95,0.00,CLR,,0.00,WeatherDisplay:10.37,2013-02-06 11:19:00,
2013-02-06 05:24:00,32.1,30.8,30.26,SW,232,0.0,0.0,95,0.00,CLR,,0.00,WeatherDisplay:10.37,2013-02-06 11:24:00,
2013-02-06 05:29:00,31.9,30.6,30.26,SW,232,0.0,0.0,95,0.00,CLR,,0.00,WeatherDisplay:10.37,2013-02-06 11:29:00,
2013-02-06 05:34:00,31.9,30.6,30.26,SW,232,0.0,0.0,95,0.00,CLR,,0.00,WeatherDisplay:10.37,2013-02-06 11:34:00,
2013-02-06 05:39:00,31.9,30.6,30.27,SW,232,0.0,0.0,95,0.00,CLR,,0.00,WeatherDisplay:10.37,2013-02-06 11:39:00,
2013-02-06 05:44:00,31.9,30.6,30.27,SW,232,0.0,0.0,95,0.00,CLR,,0.00,WeatherDisplay:10.37,2013-02-06 11:44:00,
2013-02-06 05:49:00,31.9,30.6,30.27,SW,232,0.0,0.0,95,0.00,CLR,,0.00,WeatherDisplay:10.37,2013-02-06 11:49:00,
2013-02-06 05:54:00,32.1,30.8,30.27,SW,232,0.0,0.1,95,0.00,CLR,,0.00,WeatherDisplay:10.37,2013-02-06 11:54:00,
2013-02-06 05:59:00,32.2,30.9,30.27,SW,232,0.0,0.0,95,0.00,CLR,,0.00,WeatherDisplay:10.37,2013-02-06 11:59:00,
2013-02-06 06:04:00,32.2,30.9,30.27,SW,232,0.0,0.0,95,0.00,CLR,,0.00,WeatherDisplay:10.37,2013-02-06 12:04:00,
2013-02-06 06:09:00,32.4,31.1,30.28,SW,232,0.0,0.0,95,0.00,CLR,,0.00,WeatherDisplay:10.37,2013-02-06 12:09:00,
2013-02-06 06:14:00,32.7,31.4,30.28,SW,232,0.0,0.0,95,0.00,CLR,,0.00,WeatherDisplay:10.37,2013-02-06 12:14:00,
2013-02-06 06:19:00,32.7,31.4,30.28,SW,232,0.0,0.0,95,0.00,CLR,,0.00,WeatherDisplay:10.37,2013-02-06 12:19:00,
2013-02-06 06:24:00,32.5,31.2,30.28,SW,232,0.0,0.0,95,0.00,CLR,,0.00,WeatherDisplay:10.37,2013-02-06 12:24:00,
2013-02-06 06:29:00,32.5,31.2,30.28,SW,232,0.0,0.0,95,0.00,CLR,,0.00,WeatherDisplay:10.37,2013-02-06 12:29:00,
2013-02-06 06:34:00,32.4,31.1,30.28,SW,232,0.0,0.0,95,0.00,CLR,,0.00,WeatherDisplay:10.37,2013-02-06 12:34:00,
2013-02-06 06:39:00,32.2,30.9,30.28,SW,232,0.0,0.0,95,0.00,CLR,,0.00,WeatherDisplay:10.37,2013-02-06 12:39:00,
2013-02-06 06:44:00,32.4,31.1,30.28,SW,232,0.0,0.0,95,0.00,CLR,,0.00,WeatherDisplay:10.37,2013-02-06 12:44:00,
2013-02-06 06:49:00,32.4,31.1,30.29,SW,232,0.0,0.0,95,0.00,CLR,,0.00,WeatherDisplay:10.37,2013-02-06 12:49:00,
2013-02-06 06:54:00,32.4,31.1,30.29,SW,232,0.0,0.0,95,0.00,CLR,,0.00,WeatherDisplay:10.37,2013-02-06 12:54:00,
2013-02-06 06:59:00,32.4,31.1,30.29,SW,232,0.0,0.0,95,0.00,CLR,,0.00,WeatherDisplay:10.37,2013-02-06 12:59:00,
2013-02-06 07:04:00,32.5,31.2,30.30,SW,232,0.0,0.0,95,0.00,CLR,,0.00,WeatherDisplay:10.37,2013-02-06 13:04:00,
2013-02-06 07:09:00,32.7,31.7,30.30,SW,232,0.0,0.0,96,0.00,CLR,,0.00,WeatherDisplay:10.37,2013-02-06 13:09:00,
2013-02-06 07:14:00,32.8,31.8,30.30,SW,232,0.0,0.0,96,0.00,CLR,,0.00,WeatherDisplay:10.37,2013-02-06 13:14:00,
2013-02-06 07:19:00,32.9,31.9,30.30,SW,232,0.0,0.0,96,0.00,CLR,,0.00,WeatherDisplay:10.37,2013-02-06 13:19:00,
2013-02-06 07:24:00,32.9,31.9,30.30,SW,232,0.0,0.0,96,0.00,CLR,,0.00,WeatherDisplay:10.37,2013-02-06 13:24:00,
2013-02-06 07:29:00,33.2,32.2,30.30,East,94,0.0,0.0,96,0.00,CLR,,0.00,WeatherDisplay:10.37,2013-02-06 13:29:00,
2013-02-06 07:34:00,33.5,32.5,30.30,East,94,0.0,0.0,96,0.00,CLR,,0.00,WeatherDisplay:10.37,2013-02-06 13:34:00,
2013-02-06 07:39:00,34.0,33.0,30.30,East,94,0.0,0.0,96,0.00,CLR,,0.00,WeatherDisplay:10.37,2013-02-06 13:39:00,
2013-02-06 07:44:00,34.3,33.3,30.30,East,94,0.0,0.0,96,0.00,CLR,,0.00,WeatherDisplay:10.37,2013-02-06 13:44:00,
2013-02-06 07:49:00,34.7,33.7,30.30,East,94,0.0,0.0,96,0.00,CLR,,0.00,WeatherDisplay:10.37,2013-02-06 13:49:00,
2013-02-06 07:55:00,35.2,34.2,30.31,East,94,0.0,0.0,96,0.00,CLR,,0.00,WeatherDisplay:10.37,2013-02-06 13:55:00,
2013-02-06 08:00:00,35.8,34.8,30.31,East,94,0.0,0.0,96,0.00,CLR,,0.00,WeatherDisplay:10.37,2013-02-06 14:00:00,
2013-02-06 08:05:00,36.6,35.6,30.31,East,94,0.0,0.0,96,0.00,CLR,,0.00,WeatherDisplay:10.37,2013-02-06 14:05:00,
2013-02-06 08:10:00,37.0,36.0,30.31,East,94,0.0,0.0,96,0.00,CLR,,0.00,WeatherDisplay:10.37,2013-02-06 14:10:00,
2013-02-06 08:15:00,37.5,36.5,30.31,East,94,0.0,0.0,96,0.00,CLR,,0.00,WeatherDisplay:10.37,2013-02-06 14:15:00,
2013-02-06 08:20:00,38.3,37.3,30.31,East,94,0.0,0.0,96,0.00,CLR,,0.00,WeatherDisplay:10.37,2013-02-06 14:20:00,
2013-02-06 08:25:00,39.5,38.5,30.31,East,94,0.0,0.0,96,0.00,CLR,,0.00,WeatherDisplay:10.37,2013-02-06 14:25:00,
2013-02-06 08:30:00,40.1,39.1,30.32,East,94,0.0,0.0,96,0.00,CLR,,0.00,WeatherDisplay:10.37,2013-02-06 14:30:00,
2013-02-06 08:35:00,40.5,39.4,30.31,East,94,0.0,1.0,96,0.00,CLR,,0.00,WeatherDisplay:10.37,2013-02-06 14:35:00,
2013-02-06 08:40:00,40.6,39.5,30.31,East,94,0.0,0.0,96,0.00,CLR,,0.00,WeatherDisplay:10.37,2013-02-06 14:40:00,
2013-02-06 08:45:00,41.2,40.2,30.32,East,94,0.0,0.0,96,0.00,CLR,,0.00,WeatherDisplay:10.37,2013-02-06 14:45:00,
2013-02-06 08:50:00,41.5,40.4,30.31,East,94,0.0,0.1,96,0.00,CLR,,0.00,WeatherDisplay:10.37,2013-02-06 14:50:00,
2013-02-06 08:55:00,41.9,40.8,30.31,East,94,0.0,0.0,96,0.00,CLR,,0.00,WeatherDisplay:10.37,2013-02-06 14:55:00,
2013-02-06 09:00:00,42.8,41.2,30.32,East,94,0.0,0.0,94,0.00,CLR,,0.00,WeatherDisplay:10.37,2013-02-06 15:00:00,
2013-02-06 09:05:00,43.8,41.3,30.31,East,94,1.1,1.1,91,0.00,CLR,,0.00,WeatherDisplay:10.37,2013-02-06 15:05:00,
2013-02-06 09:10:00,44.4,40.5,30.32,East,94,0.0,1.0,86,0.00,CLR,,0.00,WeatherDisplay:10.37,2013-02-06 15:10:00,
2013-02-06 09:15:00,45.2,41.0,30.31,NE,40,0.0,1.3,85,0.00,CLR,,0.00,WeatherDisplay:10.37,2013-02-06 15:15:00,
2013-02-06 09:20:00,45.7,39.9,30.32,NE,56,1.1,1.1,80,0.00,CLR,,0.00,WeatherDisplay:10.37,2013-02-06 15:20:00,
2013-02-06 09:25:00,46.4,39.9,30.32,ENE,70,1.1,0.0,78,0.00,CLR,,0.00,WeatherDisplay:10.37,2013-02-06 15:25:00,
2013-02-06 09:30:00,46.8,39.3,30.32,East,83,1.1,0.0,75,0.00,CLR,,0.00,WeatherDisplay:10.37,2013-02-06 15:30:00,
2013-02-06 09:35:00,47.6,39.7,30.31,East,82,2.3,2.3,74,0.00,CLR,,0.00,WeatherDisplay:10.37,2013-02-06 15:35:00,
2013-02-06 09:40:00,48.5,40.9,30.31,East,83,1.0,0.0,75,0.00,CLR,,0.00,WeatherDisplay:10.37,2013-02-06 15:40:00,
2013-02-06 09:45:00,49.8,41.1,30.31,NNE,16,1.1,1.1,72,0.00,CLR,,0.00,WeatherDisplay:10.37,2013-02-06 15:45:00,
2013-02-06 09:50:00,50.7,40.9,30.31,NNE,17,1.1,1.1,69,0.00,CLR,,0.00,WeatherDisplay:10.37,2013-02-06 15:50:00,
2013-02-06 09:55:00,51.3,39.5,30.31,East,83,2.3,2.3,64,0.00,CLR,,0.00,WeatherDisplay:10.37,2013-02-06 15:55:00,
2013-02-06 10:00:00,51.7,39.1,30.30,East,79,3.0,3.0,62,0.00,CLR,,0.00,WeatherDisplay:10.37,2013-02-06 16:00:00,
2013-02-06 10:05:00,52.3,39.2,30.30,NE,55,2.0,2.0,61,0.00,CLR,,0.00,WeatherDisplay:10.37,2013-02-06 16:05:00,
2013-02-06 10:10:00,52.9,41.0,30.30,NNE,22,0.0,0.0,64,0.00,CLR,,0.00,WeatherDisplay:10.37,2013-02-06 16:10:00,
2013-02-06 10:15:00,53.8,39.8,30.30,NW,317,2.3,2.3,59,0.00,CLR,,0.00,WeatherDisplay:10.37,2013-02-06 16:15:00,
2013-02-06 10:20:00,54.2,37.9,30.31,NNE,32,1.1,1.1,54,0.00,CLR,,0.00,WeatherDisplay:10.37,2013-02-06 16:20:00,
2013-02-06 10:25:00,54.4,38.1,30.31,East,86,0.0,0.0,54,0.00,CLR,,0.00,WeatherDisplay:10.37,2013-02-06 16:25:00,
2013-02-06 10:30:00,54.8,38.0,30.30,East,92,4.0,4.0,53,0.00,CLR,,0.00,WeatherDisplay:10.37,2013-02-06 16:30:00,
2013-02-06 10:35:00,55.3,40.8,30.30,NNE,22,1.1,0.0,58,0.00,CLR,,0.00,WeatherDisplay:10.37,2013-02-06 16:35:00,
2013-02-06 10:40:00,56.2,39.8,30.31,NNE,21,1.1,1.1,54,0.00,CLR,,0.00,WeatherDisplay:10.37,2013-02-06 16:40:00,
2013-02-06 10:45:00,56.7,39.7,30.30,ENE,61,3.5,3.5,53,0.00,CLR,,0.00,WeatherDisplay:10.37,2013-02-06 16:45:00,
2013-02-06 10:50:00,57.0,38.0,30.30,ENE,60,3.0,3.0,49,0.00,CLR,,0.00,WeatherDisplay:10.37,2013-02-06 16:50:00,
2013-02-06 10:55:00,57.2,39.2,30.30,NNE,30,3.5,3.5,51,0.00,CLR,,0.00,WeatherDisplay:10.37,2013-02-06 16:55:00,
2013-02-06 11:00:00,57.2,38.7,30.30,NNE,22,4.6,4.6,50,0.00,CLR,,0.00,WeatherDisplay:10.37,2013-02-06 17:00:00,
2013-02-06 11:05:00,57.2,37.1,30.30,East,91,2.3,2.3,47,0.00,CLR,,0.00,WeatherDisplay:10.37,2013-02-06 17:05:00,
2013-02-06 11:10:00,57.6,39.6,30.30,NE,53,1.1,1.1,51,0.00,CLR,,0.00,WeatherDisplay:10.37,2013-02-06 17:10:00,
2013-02-06 11:15:00,58.6,39.0,30.30,NE,55,1.1,1.1,48,0.00,CLR,,0.00,WeatherDisplay:10.37,2013-02-06 17:15:00,
2013-02-06 11:20:00,59.6,37.6,30.29,NE,45,0.0,0.0,44,0.00,CLR,,0.00,WeatherDisplay:10.37,2013-02-06 17:20:00,
2013-02-06 11:25:00,59.9,39.1,30.29,East,94,3.5,3.5,46,0.00,CLR,,0.00,WeatherDisplay:10.37,2013-02-06 17:25:00,
2013-02-06 11:30:00,59.6,35.9,30.28,ESE,115,0.0,0.0,41,0.00,CLR,,0.00,WeatherDisplay:10.37,2013-02-06 17:30:00,
2013-02-06 11:35:00,60.1,35.7,30.28,SSE,163,3.5,3.5,40,0.00,CLR,,0.00,WeatherDisplay:10.37,2013-02-06 17:35:00,
2013-02-06 11:40:00,60.1,36.9,30.28,SSE,163,1.1,1.1,42,0.00,CLR,,0.00,WeatherDisplay:10.37,2013-02-06 17:40:00,
2013-02-06 11:45:00,60.5,36.7,30.28,SW,234,2.3,0.0,41,0.00,CLR,,0.00,WeatherDisplay:10.37,2013-02-06 17:45:00,
2013-02-06 11:50:00,60.9,36.4,30.28,SW,215,1.1,1.1,40,0.00,CLR,,0.00,WeatherDisplay:10.37,2013-02-06 17:50:00,
2013-02-06 11:55:00,61.5,38.8,30.28,SW,217,1.1,1.1,43,0.00,CLR,,0.00,WeatherDisplay:10.37,2013-02-06 17:55:00,
2013-02-06 12:00:00,61.6,36.4,30.28,SW,217,2.3,2.3,39,0.00,CLR,,0.00,WeatherDisplay:10.37,2013-02-06 18:00:00,
2013-02-06 12:05:00,61.3,35.5,30.27,South,169,1.1,1.1,38,0.00,CLR,,0.00,WeatherDisplay:10.37,2013-02-06 18:05:00,
2013-02-06 12:10:00,61.5,35.6,30.27,South,183,1.1,1.1,38,0.00,CLR,,0.00,WeatherDisplay:10.37,2013-02-06 18:10:00,
2013-02-06 12:15:00,61.5,35.6,30.27,East,82,3.5,3.5,38,0.00,CLR,,0.00,WeatherDisplay:10.37,2013-02-06 18:15:00,
2013-02-06 12:20:00,61.5,36.3,30.26,East,99,3.5,3.5,39,0.00,CLR,,0.00,WeatherDisplay:10.37,2013-02-06 18:20:00,
2013-02-06 12:25:00,61.3,34.8,30.26,ESE,117,3.5,3.5,37,0.00,CLR,,0.00,WeatherDisplay:10.37,2013-02-06 18:25:00,
2013-02-06 12:30:00,61.5,37.6,30.26,East,92,1.1,1.1,41,0.00,CLR,,0.00,WeatherDisplay:10.37,2013-02-06 18:30:00,
2013-02-06 12:35:00,61.8,35.9,30.25,East,90,1.1,1.1,38,0.00,CLR,,0.00,WeatherDisplay:10.37,2013-02-06 18:35:00,
2013-02-06 12:40:00,62.3,35.0,30.25,East,83,2.0,2.0,36,0.00,CLR,,0.00,WeatherDisplay:10.37,2013-02-06 18:40:00,
2013-02-06 12:45:00,62.7,36.0,30.25,South,187,1.1,0.0,37,0.00,CLR,,0.00,WeatherDisplay:10.37,2013-02-06 18:45:00,
2013-02-06 12:50:00,62.7,36.0,30.25,ESE,121,2.3,2.3,37,0.00,CLR,,0.00,WeatherDisplay:10.37,2013-02-06 18:50:00,
2013-02-06 12:55:00,63.2,35.1,30.25,SW,236,2.3,2.3,35,0.00,CLR,,0.00,WeatherDisplay:10.37,2013-02-06 18:55:00,
2013-02-06 13:00:00,63.7,36.2,30.25,SE,130,1.1,1.1,36,0.00,CLR,,0.00,WeatherDisplay:10.37,2013-02-06 19:00:00,
2013-02-06 13:05:00,63.7,36.2,30.24,SSE,155,3.5,3.5,36,0.00,CLR,,0.00,WeatherDisplay:10.37,2013-02-06 19:05:00,
2013-02-06 13:10:00,64.0,35.8,30.24,SE,130,2.0,2.0,35,0.00,CLR,,0.00,WeatherDisplay:10.37,2013-02-06 19:10:00,
2013-02-06 13:15:00,63.9,35.7,30.24,SE,138,3.5,3.5,35,0.00,CLR,,0.00,WeatherDisplay:10.37,2013-02-06 19:15:00,
2013-02-06 13:20:00,64.0,36.5,30.24,WSW,240,2.3,2.3,36,0.00,CLR,,0.00,WeatherDisplay:10.37,2013-02-06 19:20:00,
2013-02-06 13:25:00,64.2,35.2,30.23,ESE,108,2.3,2.3,34,0.00,CLR,,0.00,WeatherDisplay:10.37,2013-02-06 19:25:00,
2013-02-06 13:30:00,64.2,36.7,30.23,ESE,118,3.5,0.0,36,0.00,CLR,,0.00,WeatherDisplay:10.37,2013-02-06 19:30:00,
2013-02-06 13:35:00,64.7,34.9,30.23,ESE,104,3.5,3.5,33,0.00,CLR,,0.00,WeatherDisplay:10.37,2013-02-06 19:35:00,
2013-02-06 13:40:00,65.3,36.9,30.23,SSE,158,0.0,0.0,35,0.00,CLR,,0.00,WeatherDisplay:10.37,2013-02-06 19:40:00,
2013-02-06 13:45:00,66.1,37.6,30.22,SSW,206,0.0,0.0,35,0.00,CLR,,0.00,WeatherDisplay:10.37,2013-02-06 19:45:00,
2013-02-06 13:50:00,66.6,36.6,30.23,SSW,202,1.1,1.1,33,0.00,CLR,,0.00,WeatherDisplay:10.37,2013-02-06 19:50:00,
2013-02-06 13:55:00,66.8,36.0,30.22,ESE,122,2.3,2.3,32,0.00,CLR,,0.00,WeatherDisplay:10.37,2013-02-06 19:55:00,
2013-02-06 14:00:00,66.6,35.0,30.23,SSE,156,2.3,2.3,31,0.00,CLR,,0.00,WeatherDisplay:10.37,2013-02-06 20:00:00,
2013-02-06 14:05:00,66.3,33.9,30.23,SW,216,2.3,2.3,30,0.00,CLR,,0.00,WeatherDisplay:10.37,2013-02-06 20:05:00,
2013-02-06 14:10:00,66.0,36.1,30.22,ESE,110,3.0,3.0,33,0.00,CLR,,0.00,WeatherDisplay:10.37,2013-02-06 20:10:00,
2013-02-06 14:15:00,65.8,34.3,30.22,SE,136,1.1,1.1,31,0.00,CLR,,0.00,WeatherDisplay:10.37,2013-02-06 20:15:00,
2013-02-06 14:20:00,65.8,35.1,30.22,ENE,57,2.3,2.3,32,0.00,CLR,,0.00,WeatherDisplay:10.37,2013-02-06 20:20:00,
2013-02-06 14:25:00,65.8,34.3,30.23,South,169,3.5,3.5,31,0.00,CLR,,0.00,WeatherDisplay:10.37,2013-02-06 20:25:00,
2013-02-06 14:30:00,66.0,34.5,30.23,South,188,2.0,2.0,31,0.00,CLR,,0.00,WeatherDisplay:10.37,2013-02-06 20:30:00,
2013-02-06 14:35:00,66.1,34.6,30.22,SW,232,2.3,2.3,31,0.00,CLR,,0.00,WeatherDisplay:10.37,2013-02-06 20:35:00,
2013-02-06 14:40:00,66.0,34.5,30.22,SW,221,0.0,0.2,31,0.00,CLR,,0.00,WeatherDisplay:10.37,2013-02-06 20:40:00,
2013-02-06 14:45:00,66.1,34.6,30.22,SW,215,1.1,1.1,31,0.00,CLR,,0.00,WeatherDisplay:10.37,2013-02-06 20:45:00,
2013-02-06 14:50:00,66.0,35.3,30.22,SSE,166,1.1,1.1,32,0.00,CLR,,0.00,WeatherDisplay:10.37,2013-02-06 20:50:00,
2013-02-06 14:55:00,66.1,34.6,30.22,SSE,167,1.1,0.0,31,0.00,CLR,,0.00,WeatherDisplay:10.37,2013-02-06 20:55:00,
2013-02-06 15:00:00,66.3,33.1,30.22,SSE,162,1.1,0.0,29,0.00,CLR,,0.00,WeatherDisplay:10.37,2013-02-06 21:00:00,
2013-02-06 15:05:00,66.3,34.7,30.22,SSE,155,0.0,0.1,31,0.00,CLR,,0.00,WeatherDisplay:10.37,2013-02-06 21:05:00,
2013-02-06 15:10:00,66.4,34.8,30.22,SSE,155,0.0,0.0,31,0.00,CLR,,0.00,WeatherDisplay:10.37,2013-02-06 21:10:00,
2013-02-06 15:15:00,66.9,33.6,30.21,SSE,155,0.0,0.0,29,0.00,CLR,,0.00,WeatherDisplay:10.37,2013-02-06 21:15:00,
2013-02-06 15:20:00,67.1,33.8,30.21,SE,130,1.1,1.1,29,0.00,CLR,,0.00,WeatherDisplay:10.37,2013-02-06 21:20:00,
2013-02-06 15:25:00,67.1,32.9,30.20,South,184,1.1,1.1,28,0.00,CLR,,0.00,WeatherDisplay:10.37,2013-02-06 21:25:00,
2013-02-06 15:30:00,66.8,34.3,30.20,East,90,2.0,2.0,30,0.00,CLR,,0.00,WeatherDisplay:10.37,2013-02-06 21:30:00,
2013-02-06 15:35:00,66.3,33.1,30.20,East,92,2.3,2.3,29,0.00,CLR,,0.00,WeatherDisplay:10.37,2013-02-06 21:35:00,
2013-02-06 15:40:00,65.5,33.2,30.20,East,94,2.3,2.3,30,0.00,CLR,,0.00,WeatherDisplay:10.37,2013-02-06 21:40:00,
2013-02-06 15:45:00,65.2,33.8,30.20,East,94,1.1,0.0,31,0.00,CLR,,0.00,WeatherDisplay:10.37,2013-02-06 21:45:00,
2013-02-06 15:50:00,65.2,33.8,30.20,ENE,74,1.1,1.1,31,0.00,CLR,,0.00,WeatherDisplay:10.37,2013-02-06 21:50:00,
2013-02-06 15:55:00,64.8,33.4,30.20,East,83,2.3,2.3,31,0.00,CLR,,0.00,WeatherDisplay:10.37,2013-02-06 21:55:00,
2013-02-06 16:00:00,64.3,33.8,30.20,East,83,0.0,0.0,32,0.00,CLR,,0.00,WeatherDisplay:10.37,2013-02-06 22:00:00,
2013-02-06 16:05:00,64.0,32.7,30.20,East,83,1.1,0.0,31,0.00,CLR,,0.00,WeatherDisplay:10.37,2013-02-06 22:05:00,
2013-02-06 16:10:00,63.7,33.3,30.20,East,83,0.0,0.0,32,0.00,CLR,,0.00,WeatherDisplay:10.37,2013-02-06 22:10:00,
2013-02-06 16:15:00,63.7,33.3,30.20,East,83,0.0,0.0,32,0.00,CLR,,0.00,WeatherDisplay:10.37,2013-02-06 22:15:00,
2013-02-06 16:20:00,63.5,35.3,30.20,East,83,0.0,0.0,35,0.00,CLR,,0.00,WeatherDisplay:10.37,2013-02-06 22:20:00,
2013-02-06 16:25:00,63.2,34.3,30.21,East,83,0.0,0.0,34,0.00,CLR,,0.00,WeatherDisplay:10.37,2013-02-06 22:25:00,
2013-02-06 16:30:00,63.1,35.7,30.21,East,83,0.0,0.0,36,0.00,CLR,,0.00,WeatherDisplay:10.37,2013-02-06 22:30:00,
2013-02-06 16:35:00,62.6,37.3,30.21,East,83,0.0,0.0,39,0.00,CLR,,0.00,WeatherDisplay:10.37,2013-02-06 22:35:00,
2013-02-06 16:40:00,61.8,37.8,30.21,East,83,0.0,0.0,41,0.00,CLR,,0.00,WeatherDisplay:10.37,2013-02-06 22:40:00,
2013-02-06 16:45:00,61.0,38.3,30.21,East,83,0.0,0.0,43,0.00,CLR,,0.00,WeatherDisplay:10.37,2013-02-06 22:45:00,
2013-02-06 16:50:00,60.2,39.3,30.21,East,83,0.0,0.0,46,0.00,CLR,,0.00,WeatherDisplay:10.37,2013-02-06 22:50:00,
2013-02-06 16:55:00,59.6,39.3,30.22,East,83,0.0,0.0,47,0.00,CLR,,0.00,WeatherDisplay:10.37,2013-02-06 22:55:00,
2013-02-06 17:00:00,58.9,39.8,30.22,East,83,0.0,0.0,49,0.00,CLR,,0.00,WeatherDisplay:10.37,2013-02-06 23:00:00,
2013-02-06 17:06:00,58.3,39.7,30.22,East,83,0.0,0.0,50,0.00,CLR,,0.00,WeatherDisplay:10.37,2013-02-06 23:06:00,
2013-02-06 17:11:00,57.5,40.0,30.22,East,83,0.0,0.0,52,0.00,CLR,,0.00,WeatherDisplay:10.37,2013-02-06 23:11:00,
2013-02-06 17:16:00,56.6,39.7,30.22,East,83,0.0,0.0,53,0.00,CLR,,0.00,WeatherDisplay:10.37,2013-02-06 23:16:00,
2013-02-06 17:21:00,55.9,40.0,30.22,East,83,0.0,0.0,55,0.00,CLR,,0.00,WeatherDisplay:10.37,2013-02-06 23:21:00,
2013-02-06 17:26:00,55.1,39.7,30.22,East,83,0.0,0.0,56,0.00,CLR,,0.00,WeatherDisplay:10.37,2013-02-06 23:26:00,
2013-02-06 17:31:00,54.5,39.6,30.22,East,83,0.0,0.0,57,0.00,CLR,,0.00,WeatherDisplay:10.37,2013-02-06 23:31:00,
2013-02-06 17:36:00,53.8,39.4,30.22,East,83,0.0,0.0,58,0.00,CLR,,0.00,WeatherDisplay:10.37,2013-02-06 23:36:00,
2013-02-06 17:41:00,53.1,39.1,30.22,East,83,0.0,0.0,59,0.00,CLR,,0.00,WeatherDisplay:10.37,2013-02-06 23:41:00,
2013-02-06 17:46:00,52.5,39.4,30.22,East,83,1.1,0.0,61,0.00,CLR,,0.00,WeatherDisplay:10.37,2013-02-06 23:46:00,
2013-02-06 17:51:00,52.0,39.4,30.22,East,83,0.0,0.0,62,0.00,CLR,,0.00,WeatherDisplay:10.37,2013-02-06 23:51:00,
2013-02-06 17:56:00,51.6,38.6,30.22,East,83,0.0,0.0,61,0.00,CLR,,0.00,WeatherDisplay:10.37,2013-02-06 23:56:00,
2013-02-06 18:01:00,51.3,38.3,30.22,East,83,0.0,0.0,61,0.00,CLR,,0.00,WeatherDisplay:10.37,2013-02-07 00:01:00,
2013-02-06 18:06:00,51.0,37.6,30.22,East,83,0.0,0.0,60,0.00,CLR,,0.00,WeatherDisplay:10.37,2013-02-07 00:06:00,
2013-02-06 18:11:00,50.7,36.9,30.22,East,83,0.0,0.0,59,0.00,CLR,,0.00,WeatherDisplay:10.37,2013-02-07 00:11:00,
2013-02-06 18:16:00,51.1,36.8,30.22,East,83,0.0,0.0,58,0.00,CLR,,0.00,WeatherDisplay:10.37,2013-02-07 00:16:00,
2013-02-06 18:21:00,51.6,36.9,30.22,NE,56,3.5,3.5,57,0.00,CLR,,0.00,WeatherDisplay:10.37,2013-02-07 00:21:00,
2013-02-06 18:26:00,51.9,35.8,30.23,NNE,20,0.0,0.0,54,0.00,CLR,,0.00,WeatherDisplay:10.37,2013-02-07 00:26:00,
2013-02-06 18:31:00,52.3,36.1,30.23,NNE,20,0.0,0.0,54,0.00,CLR,,0.00,WeatherDisplay:10.37,2013-02-07 00:31:00,
2013-02-06 18:36:00,52.5,35.8,30.23,NNE,20,0.0,0.0,53,0.00,CLR,,0.00,WeatherDisplay:10.37,2013-02-07 00:36:00,
2013-02-06 18:41:00,52.3,36.6,30.24,NNE,20,0.0,0.0,55,0.00,CLR,,0.00,WeatherDisplay:10.37,2013-02-07 00:41:00,
2013-02-06 18:46:00,51.9,36.7,30.25,NNE,20,0.0,0.0,56,0.00,CLR,,0.00,WeatherDisplay:10.37,2013-02-07 00:46:00,
2013-02-06 18:51:00,51.4,36.7,30.24,NNE,20,0.0,0.0,57,0.00,CLR,,0.00,WeatherDisplay:10.37,2013-02-07 00:51:00,
2013-02-06 18:56:00,51.0,37.2,30.24,NNE,20,1.1,0.0,59,0.00,CLR,,0.00,WeatherDisplay:10.37,2013-02-07 00:56:00,
2013-02-06 19:01:00,50.2,36.8,30.25,NNE,20,1.0,0.0,60,0.00,CLR,,0.00,WeatherDisplay:10.37,2013-02-07 01:01:00,
2013-02-06 19:06:00,49.8,36.9,30.24,NNE,20,0.0,0.0,61,0.00,CLR,,0.00,WeatherDisplay:10.37,2013-02-07 01:06:00,
2013-02-06 19:11:00,49.4,36.9,30.24,NNE,20,0.0,0.0,62,0.00,CLR,,0.00,WeatherDisplay:10.37,2013-02-07 01:11:00,
2013-02-06 19:16:00,48.8,37.2,30.24,NNE,20,0.0,0.0,64,0.00,CLR,,0.00,WeatherDisplay:10.37,2013-02-07 01:16:00,
2013-02-06 19:21:00,48.3,37.1,30.24,NNE,20,0.0,0.0,65,0.00,CLR,,0.00,WeatherDisplay:10.37,2013-02-07 01:21:00,
2013-02-06 19:26:00,47.9,37.1,30.25,NNE,20,0.0,0.0,66,0.00,CLR,,0.00,WeatherDisplay:10.37,2013-02-07 01:26:00,
2013-02-06 19:31:00,47.4,37.0,30.25,NNE,20,0.0,0.0,67,0.00,CLR,,0.00,WeatherDisplay:10.37,2013-02-07 01:31:00,
2013-02-06 19:36:00,47.1,37.4,30.25,NNE,20,0.0,0.0,69,0.00,CLR,,0.00,WeatherDisplay:10.37,2013-02-07 01:36:00,
2013-02-06 19:41:00,46.8,37.5,30.26,NNE,20,0.0,0.0,70,0.00,CLR,,0.00,WeatherDisplay:10.37,2013-02-07 01:41:00,
2013-02-06 19:46:00,46.5,37.6,30.26,NNE,20,0.0,0.0,71,0.00,CLR,,0.00,WeatherDisplay:10.37,2013-02-07 01:46:00,
2013-02-06 19:51:00,46.5,38.0,30.26,NNE,20,0.0,0.0,72,0.00,CLR,,0.00,WeatherDisplay:10.37,2013-02-07 01:51:00,
2013-02-06 19:56:00,46.4,37.9,30.26,NNE,20,0.0,0.0,72,0.00,CLR,,0.00,WeatherDisplay:10.37,2013-02-07 01:56:00,
2013-02-06 20:01:00,46.1,37.6,30.26,NNE,20,0.0,0.0,72,0.00,CLR,,0.00,WeatherDisplay:10.37,2013-02-07 02:01:00,
2013-02-06 20:06:00,45.8,37.6,30.25,NNE,20,0.0,0.0,73,0.00,CLR,,0.00,WeatherDisplay:10.37,2013-02-07 02:06:00,
2013-02-06 20:11:00,45.7,37.5,30.25,NNE,20,0.0,0.0,73,0.00,CLR,,0.00,WeatherDisplay:10.37,2013-02-07 02:11:00,
2013-02-06 20:16:00,45.5,37.3,30.24,NNE,20,0.0,0.0,73,0.00,CLR,,0.00,WeatherDisplay:10.37,2013-02-07 02:16:00,
2013-02-06 20:21:00,45.4,37.2,30.24,NNE,20,0.0,0.0,73,0.00,CLR,,0.00,WeatherDisplay:10.37,2013-02-07 02:21:00,
2013-02-06 20:26:00,45.2,37.1,30.24,NNE,20,1.1,0.0,73,0.00,CLR,,0.00,WeatherDisplay:10.37,2013-02-07 02:26:00,
2013-02-06 20:31:00,45.1,37.0,30.24,NNE,20,0.0,0.0,73,0.00,CLR,,0.00,WeatherDisplay:10.37,2013-02-07 02:31:00,
2013-02-06 20:36:00,44.9,36.8,30.24,NNE,20,0.0,0.0,73,0.00,CLR,,0.00,WeatherDisplay:10.37,2013-02-07 02:36:00,
2013-02-06 20:41:00,44.9,37.1,30.24,NNE,20,0.0,0.0,74,0.00,CLR,,0.00,WeatherDisplay:10.37,2013-02-07 02:41:00,
2013-02-06 20:46:00,44.9,37.8,30.25,NNE,20,0.0,0.0,76,0.00,CLR,,0.00,WeatherDisplay:10.37,2013-02-07 02:46:00,
2013-02-06 20:51:00,44.8,37.7,30.25,NNE,20,0.0,0.0,76,0.00,CLR,,0.00,WeatherDisplay:10.37,2013-02-07 02:51:00,
2013-02-06 20:56:00,44.6,37.8,30.25,NNE,20,0.0,0.0,77,0.00,CLR,,0.00,WeatherDisplay:10.37,2013-02-07 02:56:00,
2013-02-06 21:01:00,44.5,37.7,30.25,NNE,20,0.0,0.0,77,0.00,CLR,,0.00,WeatherDisplay:10.37,2013-02-07 03:01:00,
2013-02-06 21:06:00,44.3,37.9,30.24,NNE,20,0.0,0.0,78,0.00,CLR,,0.00,WeatherDisplay:10.37,2013-02-07 03:06:00,
2013-02-06 21:11:00,44.2,37.4,30.25,NNE,20,0.0,0.0,77,0.00,CLR,,0.00,WeatherDisplay:10.37,2013-02-07 03:11:00,
2013-02-06 21:16:00,44.2,37.4,30.24,NNE,20,0.0,0.0,77,0.00,CLR,,0.00,WeatherDisplay:10.37,2013-02-07 03:16:00,
2013-02-06 21:21:00,44.1,37.3,30.24,NNE,20,0.0,0.0,77,0.00,CLR,,0.00,WeatherDisplay:10.37,2013-02-07 03:21:00,
2013-02-06 21:26:00,44.1,37.3,30.24,NNE,20,0.0,0.0,77,0.00,CLR,,0.00,WeatherDisplay:10.37,2013-02-07 03:26:00,
2013-02-06 21:31:00,43.9,37.2,30.24,NNE,20,0.0,0.0,77,0.00,CLR,,0.00,WeatherDisplay:10.37,2013-02-07 03:31:00,
2013-02-06 21:36:00,43.9,37.2,30.24,NNE,20,0.0,0.0,77,0.00,CLR,,0.00,WeatherDisplay:10.37,2013-02-07 03:36:00,
2013-02-06 21:41:00,43.9,37.2,30.24,NNE,20,0.0,0.0,77,0.00,CLR,,0.00,WeatherDisplay:10.37,2013-02-07 03:41:00,
2013-02-06 21:46:00,43.9,37.2,30.24,NNE,20,0.0,0.0,77,0.00,CLR,,0.00,WeatherDisplay:10.37,2013-02-07 03:46:00,
2013-02-06 21:51:00,43.9,37.5,30.24,NNE,20,0.0,0.0,78,0.00,CLR,,0.00,WeatherDisplay:10.37,2013-02-07 03:51:00,
2013-02-06 21:56:00,43.9,37.2,30.24,NNE,20,0.0,0.0,77,0.00,CLR,,0.00,WeatherDisplay:10.37,2013-02-07 03:56:00,
2013-02-06 22:01:00,43.9,37.5,30.23,NNE,20,0.0,0.0,78,0.00,CLR,,0.00,WeatherDisplay:10.37,2013-02-07 04:01:00,
2013-02-06 22:06:00,43.9,37.8,30.23,NNE,20,0.0,0.0,79,0.00,CLR,,0.00,WeatherDisplay:10.37,2013-02-07 04:06:00,
2013-02-06 22:11:00,44.1,38.3,30.23,NNE,20,0.0,0.0,80,0.00,CLR,,0.00,WeatherDisplay:10.37,2013-02-07 04:11:00,
2013-02-06 22:16:00,43.9,37.8,30.23,NNE,20,0.0,0.0,79,0.00,CLR,,0.00,WeatherDisplay:10.37,2013-02-07 04:16:00,
2013-02-06 22:21:00,43.9,38.1,30.23,NNE,20,0.0,0.0,80,0.00,CLR,,0.00,WeatherDisplay:10.37,2013-02-07 04:21:00,
2013-02-06 22:26:00,43.9,38.1,30.22,NNE,20,0.0,0.0,80,0.00,CLR,,0.00,WeatherDisplay:10.37,2013-02-07 04:26:00,
2013-02-06 22:31:00,43.8,37.7,30.23,NNE,20,0.0,0.0,79,0.00,CLR,,0.00,WeatherDisplay:10.37,2013-02-07 04:31:00,
2013-02-06 22:36:00,43.8,37.7,30.23,NNE,20,0.0,0.0,79,0.00,CLR,,0.00,WeatherDisplay:10.37,2013-02-07 04:36:00,
2013-02-06 22:41:00,43.8,37.4,30.23,NNE,20,0.0,0.0,78,0.00,CLR,,0.00,WeatherDisplay:10.37,2013-02-07 04:41:00,
2013-02-06 22:46:00,43.8,37.7,30.23,NNE,20,0.0,0.0,79,0.00,CLR,,0.00,WeatherDisplay:10.37,2013-02-07 04:46:00,
2013-02-06 22:51:00,43.9,38.1,30.23,NNE,20,0.0,0.0,80,0.00,CLR,,0.00,WeatherDisplay:10.37,2013-02-07 04:51:00,
2013-02-06 22:56:00,43.9,38.1,30.23,NNE,20,1.1,0.0,80,0.00,CLR,,0.00,WeatherDisplay:10.37,2013-02-07 04:56:00,
2013-02-06 23:00:00,43.9,38.4,30.22,NNE,20,0.0,0.0,81,0.00,CLR,,0.00,WeatherDisplay:10.37,2013-02-07 05:00:00,
2013-02-06 23:05:00,43.8,38.0,30.22,NNE,20,0.0,0.0,80,0.00,CLR,,0.00,WeatherDisplay:10.37,2013-02-07 05:05:00,
2013-02-06 23:10:00,43.8,38.0,30.21,NNE,20,0.0,0.0,80,0.00,CLR,,0.00,WeatherDisplay:10.37,2013-02-07 05:10:00,
2013-02-06 23:13:00,43.8,38.0,30.22,NNE,20,0.0,0.0,80,0.00,CLR,,0.00,WeatherDisplay:10.37,2013-02-07 05:13:00,
2013-02-06 23:18:00,43.8,38.0,30.22,NNE,20,0.0,0.0,80,0.00,CLR,,0.00,WeatherDisplay:10.37,2013-02-07 05:18:00,
2013-02-06 23:23:00,43.6,38.2,30.22,NNE,20,0.0,0.0,81,0.00,CLR,,0.00,WeatherDisplay:10.37,2013-02-07 05:23:00,
2013-02-06 23:28:00,43.6,38.2,30.21,NNE,20,0.0,0.0,81,0.00,CLR,,0.00,WeatherDisplay:10.37,2013-02-07 05:28:00,
2013-02-06 23:33:00,43.5,38.1,30.21,NNE,20,0.0,0.0,81,0.00,CLR,,0.00,WeatherDisplay:10.37,2013-02-07 05:33:00,
2013-02-06 23:38:00,43.5,38.1,30.21,NNE,20,0.0,0.0,81,0.00,CLR,,0.00,WeatherDisplay:10.37,2013-02-07 05:38:00,
2013-02-06 23:43:00,43.3,37.9,30.21,NNE,20,0.0,0.0,81,0.00,CLR,,0.00,WeatherDisplay:10.37,2013-02-07 05:43:00,
2013-02-06 23:48:00,43.2,37.8,30.21,NNE,20,0.0,0.0,81,0.00,CLR,,0.00,WeatherDisplay:10.37,2013-02-07 05:48:00,
2013-02-06 23:53:00,43.1,37.7,30.21,NNE,20,0.0,0.0,81,0.00,CLR,,0.00,WeatherDisplay:10.37,2013-02-07 05:53:00,
2013-02-06 23:58:00,43.1,37.7,30.21,NNE,20,0.0,0.0,81,0.00,CLR,,0.00,WeatherDisplay:10.37,2013-02-07 05:58:00,